Flag for Italy Weather past 2 weeks in Ancona, Italy

Now
52 °F

Light rain. Fog.


Feels Like: 47 °F
Forecast: 49 / 55 °F
Wind: 13 mph from Northwest

Location: Falconara

Current Time: Mar 27, 2015 at 1:15:28 PM

Latest Report: Mar 27, 2015 at 11:50 AM


Visibility: 2 mi

Pressure: 29.68 "Hg

Humidity: 100%

Dew point: 52 °F

Location of AnconaLocation

Historic Weather in Ancona — Graph

°F

Ancona temperature yesterday

Maximum temperature yesterday: 68 °F (at 9:50 AM)
Minimum temperature yesterday: 50 °F (at 4:50 AM)
Average temperature yesterday: 58 °F

Past Weeks' High & Low Weather Summary

 TemperatureHumidityPressure
High68 °F (Mar 26, 9:50 AM)100% (Mar 14, 2:50 AM)30.30 "Hg (Mar 14, 2:50 AM)
Low34 °F (Mar 14, 2:50 AM)31% (Mar 21, 10:50 AM)29.39 "Hg (Mar 25, 12:50 PM)
Average50 °F82%30.05 "Hg
* Reported Mar 12 11:50 AM — Mar 27 11:50 AM, Ancona, Weather by CustomWeather, © 2015

Note: Actual official high and low records may vary slightly from our data, if they occured in-between our weather recording intervals... More about our weather records

Advertising

Ancona weather history for previous 24 hours

 ConditionsComfort  
Time TempWeatherWind HumidityBarometerVisibility
11:50 AM
Fri, Mar 27
52 °FLight rain. Fog.13 mph100%29.68 "Hg2 mi
11:01 AM52 °FRain. Fog.9 mph100%29.71 "Hg1 mi
9:50 AM54 °FFog.9 mph100%29.71 "Hg1 mi
8:50 AM54 °FLight rain. Fog.8 mph100%29.68 "Hg1 mi
7:50 AM54 °FFog.3 mph100%29.68 "Hg2 mi
6:50 AM54 °FFog.2 mph100%29.68 "Hg2 mi
5:50 AM52 °FFog.3 mph100%29.68 "Hg2 mi
4:50 AM54 °FFog.3 mph94%29.71 "Hg2 mi
3:50 AM52 °FFog.3 mph100%29.71 "Hg2 mi
2:50 AM52 °FFog.1 mph100%29.71 "Hg3 mi
1:50 AM52 °FFog.3 mph100%29.71 "Hg3 mi
12:50 AM54 °FFog.3 mph94%29.74 "Hg3 mi
11:50 PM
Thu, Mar 26
54 °FFog.3 mph94%29.74 "Hg3 mi
10:50 PM54 °FPassing clouds.6 mph94%29.74 "HgN/A
9:50 PM54 °FPassing clouds.8 mph94%29.74 "HgN/A
8:50 PM55 °FPassing clouds.1 mph100%29.74 "HgN/A
7:50 PM57 °FPassing clouds.3 mph94%29.74 "HgN/A
6:50 PM57 °FLight rain. Passing clouds.6 mph94%29.71 "Hg5 mi
5:50 PM59 °FScattered showers. Scattered clouds.6 mph88%29.71 "Hg5 mi
4:50 PM63 °FPassing clouds.3 mph83%29.68 "HgN/A
3:50 PM64 °FScattered clouds.2 mph78%29.68 "HgN/A
2:50 PM61 °FScattered clouds.2 mph88%29.71 "HgN/A
1:50 PM63 °FBroken clouds.10 mph77%29.68 "HgN/A
Weather by CustomWeather, © 2015

See weather overviewHow to use our weather pages